Regional Weather Roundup
Issued by NWS

Home | Current Version | Previous Version | Text Only | Print | Product List | Glossary Off
Versions: 1 2 3 4 5 6 7 8 9 10 11 12 13 14 15 16 17 18 19 20 21 22 23 24 25 26 27 28 29 30 31 32 33 34 35 36 37 38 39 40 41 42 43 44 45 46 47 48 49 50

000
ASUS45 KSLC 022210
RWRUT

UTAH REGIONAL WEATHER ROUNDUP
NATIONAL WEATHER SERVICE SALT LAKE CITY UT
400 PM MDT SAT MAY 02 2015

UTZ001>011-023>025-022300-

NORTHERN UTAH

CITY           SKY/WX    TMP DP  RH WIND       PRES   REMARKS
BRIGHAM CITY   MOSUNNY   76  28  16 CALM      29.86F
HILL AFB       PTSUNNY   77  32  19 NW13G18   29.87F
LOGAN          SUNNY     76  34  21 SW10      29.86F
OGDEN          SUNNY     79  35  20 N13       29.85F
PROVO AIRPORT  PTSUNNY   77  39  25 SW9       29.87F
SALT LAKE CITY PTSUNNY   81  27  14 NW10      29.83F
VERNAL         CLOUDY    70  32  24 N6        29.92F
WENDOVER       CLOUDY    81  28  15 SE10G16   29.83F
HEBER CITY     PTSUNNY   75  23  14 SW22G31   29.92F
WEST JORDAN    SUNNY     82  37  20 SW9       29.86F

$$

UTZ012>022-026-027-022300-

SOUTHERN/CENTRAL UTAH

CITY           SKY/WX    TMP DP  RH WIND       PRES   REMARKS
BLANDING       SUNNY     78  20  12 W9G20     30.04F
BRYCE CANYON   PTSUNNY   63  23  21 SW22G32   30.11F
CEDAR CITY     PTSUNNY   72  19  13 SW8       29.97F
DELTA          MOSUNNY   80  22  11 SW14G21   29.88F
HANKSVILLE     MOSUNNY   86  21   9 SW18G25   29.87F
MILFORD        MOSUNNY   82  21  10 SW26G36   29.90F
MOAB/CYNLANDS  SUNNY     84  17   8 W17G24    29.83F
PRICE          MOSUNNY   75  21  13 SW8G16    29.93F
ST GEORGE      MOCLDY    90  28  11 W14G22    29.83F

$$

REGIONAL REPORTS     COLORADO/ARIZONA

CITY           SKY/WX    TMP DP  RH WIND       PRES   REMARKS
CRAIG, CO      LGT RAIN  59  44  57 NW7       30.02R
GRAND JUNCTION MOSUNNY   79  28  15 W16G23    29.87F
RIFLE          CLOUDY    74  31  20 E7        29.94F
MONTROSE       PTSUNNY   73  29  19 SE25G31   29.97F
CORTEZ         SUNNY     78  18  10 W15       29.99F
PAGE, AZ       NOT AVBL
GRAND CANYON   CLOUDY    67  24  19 E3        30.08S
KINGMAN        MOSUNNY   87  26  11 SW22      29.88F
FLAGSTAFF      MOSUNNY   70  20  15 SW14G24   30.08F

$$

REGIONAL REPORTS    NEVADA/IDAHO/WYOMING

CITY           SKY/WX    TMP DP  RH WIND       PRES   REMARKS
LAS VEGAS, NV  PTSUNNY   91  26   9 S8G17     29.73F
ELY            MOSUNNY   76  17  11 SW20G28   29.95F
ELKO           MOSUNNY   78  25  14 W16G24    29.86F
POCATELLO, ID  MOSUNNY   81  22  11 W25G35    29.82F
BURLEY         MOSUNNY   77  35  21 SW13      29.81F
EVANSTON, WY   MOSUNNY   68  27  21 SW20      30.00F
ROCK SPRINGS   CLOUDY    55  38  52 S14       30.02R
KEMMERER       PTSUNNY   66  27  22 W26G32    30.00F

$$


USA.gov is the U.S. government's official web portal to all federal, state and local government web resources and services.